Regional Weather Roundup
Issued by NWS

Home | Current Version | Previous Version | Graphics & Text | Print | Product List | Glossary On
Versions: 1 2 3 4 5 6 7 8 9 10 11 12 13 14 15 16 17 18 19 20 21 22 23 24 25 26 27
000
ASUS45 KBOU 221007
RWRCO

WEATHER ROUNDUP FOR COLORADO
NATIONAL WEATHER SERVICE DENVER/BOULDER CO
400 AM MDT SUN OCT 22 2017

NOTE: "FAIR" INDICATES FEW OR NO CLOUDS BELOW 12000 FEET WITH NO
SIGNIFICANT WEATHER AND/OR OBSTRUCTIONS TO VISIBILITY.

COZ001>005-013-030-031-221100-
...NORTHWEST COLORADO...

CITY           SKY/WX    TMP DP  RH WIND       PRES   REMARKS
CRAIG          CLOUDY    28  23  81 CALM      30.36F
HAYDEN         CLOUDY    32  24  72 E8        30.38F WCI  25
MEEKER         FAIR      25  22  88 NE3       30.38F
RABBIT EARS PA CLOUDY    21  18  86 W14G26    30.33S WCI   8
STEAMBOAT SPGS CLOUDY    28  24  85 CALM      30.37S
WALDEN         NOT AVBL
$$

COZ006>008-011-221100-
...WEST CENTRAL VALLEYS...

CITY           SKY/WX    TMP DP  RH WIND       PRES   REMARKS
GRAND JUNCTION FAIR      36  15  42 E8        30.39S
MONTROSE       FAIR      30  16  56 S6        30.44R WCI  24
EAGLE          FAIR      23  18  81 SE5       30.44S WCI  17
RIFLE          FAIR      29  23  78 CALM      30.42S
DELTA          FAIR      32  11  41 CALM      30.42S
NUCLA          FAIR      32   9  37 SE3       30.45F
$$

COZ017>023-064>068-221100-
...SOUTHWEST COLORADO...

CITY           SKY/WX    TMP DP  RH WIND       PRES   REMARKS
DURANGO        FAIR      27   9  46 CALM      30.36S
CORTEZ         FAIR      27  11  51 E3        30.39S
PAGOSA SPRINGS FAIR      26   6  43 CALM      30.38S
TELLURIDE      FAIR      28  14  56 SE5       30.46F WCI  23
WOLF CREEK PAS FAIR      28   5  37 W7        30.49S WCI  21
$$

COZ009-010-012-014-032>034-037-058>063-221100-
...CENTRAL COLORADO...

CITY           SKY/WX    TMP DP  RH WIND       PRES   REMARKS
ASPEN          FAIR      22  18  85 SW5       30.41S WCI  16
BUENA VISTA    FAIR      37   8  31 NW10G18   30.29S
COPPER MTN     FAIR      21  12  68 MISG      30.40R
BERTHOUD PASS  FAIR      14   3  62 NW37G46   30.29R WCI  -9
COTTONWOOD PAS FAIR      36  12  38 N8G20     30.31R
GUNNISON       FAIR      18  14  84 CALM      30.43S
KREMMLING      FAIR      30  21  69 CALM      30.38S
LEADVILLE      FAIR      23  10  57 MISG      30.35S
MONARCH PASS   FAIR      19   5  53 W48       30.44S WCI  -3
SALIDA         FAIR      40   9  27 W6        30.35S
SUNLIGHT       FAIR      19  10  68 SW12G18   30.46F WCI   7
WILKERSON PASS FAIR      27  10  50 W8        30.33F WCI  18
$$

COZ069>075-221100-
...SAN LUIS VALLEY/SANGRE DE CRISTO MOUNTAINS...

CITY           SKY/WX    TMP DP  RH WIND       PRES   REMARKS
ALAMOSA        FAIR      19   9  65 W7        30.36R WCI  10
DEL NORTE      FAIR      22   8  54 CALM      30.36S
LA VETA PASS   FAIR      30   5  34 SW38G48   30.40R WCI  14
SAGUACHE       FAIR      30  12  47 W10       30.37R WCI  21
$$

COZ035-036-038>040-221100-
...NORTHERN COLORADO FRONT RANGE...

CITY           SKY/WX    TMP DP  RH WIND       PRES   REMARKS
DENVER INTL AP FAIR      42  12  29 S14       30.13S
DMNS CITY PARK   N/A     36  15  42 SE12      30.13F
AURORA         PTCLDY    36  13  37 S9        30.15S
FRONT RANGE AP FAIR      34  18  51 S9        30.14S WCI  26
ERIE MUNI ARPT FAIR      36  19  51 CALM      30.18R
BOULDER MUN AP FAIR      50  16  25 W24G32    30.10F
CENTENNIAL     FAIR      36  12  37 SE12      30.15R
BROOMFIELD     FAIR      48  14  25 W18       30.13F
FORT COLLINS   FAIR      32  23  69 NE3       30.13S
LONGMONT       NOT AVBL
$$

COZ041-046-047-076>085-087-088-221100-
...PIKES PEAK/PALMER DIVIDE AND SOUTHERN FOOTHILLS...

CITY           SKY/WX    TMP DP  RH WIND       PRES   REMARKS
COLO. SPRINGS  FAIR      34  12  40 NE5       30.22R WCI  30
A. F. ACADEMY  FAIR      29   9  43 N6        30.21R WCI  22
SCHRIEVER AFB  FAIR      34   8  34 CALM      30.22R
CHEYENNE MTN   FAIR      38   8  28 CALM      30.15S
ELLICOTT         N/A      1  32 100 CALM      30.20R
FALCON         FAIR      28  10  45 W3        30.22S
FORT CARSON    FAIR      29  13  52 NW7       30.20R WCI  21
LIMON          FAIR      20  15  81 N5        30.19S WCI  13
MONUMENT HILL  FAIR      30  14  51 SW8       30.21S WCI  23
CANON CITY     FAIR      41  14  33 SW7       30.21R
WALSENBURG     FAIR      36  12  38 S5        30.21R
TRINIDAD       FAIR      31  22  69 W8        30.24S WCI  23
$$

COZ042>045-048>051-090-091-221100-
...NORTHEAST COLORADO...

CITY           SKY/WX    TMP DP  RH WIND       PRES   REMARKS
GREELEY ARPT   FAIR      26  20  77 CALM      30.13F
AKRON          FAIR      36  16  44 SW12      30.14F
BURLINGTON     FAIR      28  19  69 SW12      30.18R WCI  18
WRAY           FAIR      28  23  80 SW7       30.16R WCI  21
YUMA           NOT AVBL
STERLING       FAIR      27  21  80 S6        30.13F WCI  20
HOLYOKE        FAIR      34  23  64 W7        30.14R WCI  28
FORT MORGAN    FAIR      31  15  50 CALM      30.14F
$$

COZ086-089-092>099-221100-
...SOUTHEAST COLORADO...

CITY           SKY/WX    TMP DP  RH WIND       PRES   REMARKS
PUEBLO         FAIR      28  18  66 CALM      30.21R
LA JUNTA       FAIR      36  15  42 SW5       30.22R
LAMAR          FAIR      27  16  63 SW5       30.21R WCI  22
SPRINGFIELD      N/A     25  19  78 CALM      30.23R
$$




USA.gov is the U.S. government's official web portal to all federal, state and local government web resources and services.